Location: Boston
(42.3580°N, 71.0600°W)
Time: 14:44:20
(UTC-05:00)

ISS - Visible Passes

Search period start: 26 January 2021 00:00
Search period end: 05 February 2021 00:00
Orbit: 418 x 421 km, 51.6° (Epoch: 27 January)

Date Brightness Start Highest point End Pass type
(mag) Time Alt. Az. Time Alt. Az. Time Alt. Az.
26 Jan -1.9 17:24:31 10° WNW 17:27:16 22° NNW 17:30:00 10° NE visible
26 Jan -1.1 19:02:37 10° NW 19:03:32 14° NNW 19:03:32 14° NNW visible
27 Jan -1.7 18:15:06 10° NW 18:17:23 17° N 18:18:09 16° NNE visible
28 Jan -1.7 17:27:27 10° NW 17:29:49 17° N 17:32:10 10° NE visible
28 Jan -1.1 19:04:48 10° NW 19:05:44 15° NNW 19:05:44 15° NNW visible
29 Jan -1.9 18:17:28 10° NW 18:19:58 19° N 18:20:23 18° NNE visible
30 Jan -1.8 17:30:03 10° NW 17:32:23 17° N 17:34:43 10° NE visible
30 Jan -1.5 19:06:45 10° NW 19:08:02 20° NNW 19:08:02 20° NNW visible
31 Jan -2.5 18:19:27 10° NW 18:22:25 27° NNE 18:22:46 26° NNE visible
01 Feb -2.2 17:32:08 10° NW 17:34:51 22° NNE 17:37:34 10° ENE visible
01 Feb -2.0 19:08:40 10° NW 19:10:34 31° NW 19:10:34 31° NW visible
02 Feb -3.5 18:21:19 10° NW 18:24:38 52° NNE 18:25:29 40° ENE visible
03 Feb -3.0 17:33:59 10° NW 17:37:09 36° NNE 17:40:19 10° E visible
03 Feb -2.1 19:10:51 10° WNW 19:13:32 33° WSW 19:13:32 33° WSW visible
04 Feb -3.2 18:23:17 10° WNW 18:26:38 58° SW 18:28:47 20° SE visible
